S-NET D

Last updated on Fri Jun 19 2026 20:04:31 GMT+0000 (Coordinated Universal Time)

1 43186U 18014G 26170.30918642 .00003778 00000+0 19621-3 0 9991 2 43186 97.5357 75.0865 0008734 23.7498 336.4137 15.16689248459089
UTC large
Height (km)
Speed (km/s)
/
Latitude / Longitude
Inclination (degrees)
Orbital Period (minutes)
Azimuth
Elevation
Range (km)
Doppler Factor

Next 0 passes for location: London (51.5072 / 0.1276)

Sorry there are no passes over London.
S-NET D